Location: Nantong Television Tower
(32.0188°N, 120.8512°E)
Time: 21:42:50
(UTC+08:00)

Vanguard 3 - Visible Passes

Search period start: 30 October 2014 00:00
Search period end: 09 November 2014 00:00
Orbit: 508 x 3278 km, 33.3° (Epoch: 29 October)

Date Brightness Start Highest point End Pass type
(mag) Time Alt. Az. Time Alt. Az. Time Alt. Az.
30 Oct 10.3 17:47:35 10° SSW 18:02:34 29° SE 18:12:22 14° E visible
30 Oct 9.3 20:00:56 10° SW 20:17:07 58° S 20:17:07 58° S visible
30 Oct 10.8 22:18:35 10° WSW 22:21:53 19° W 22:21:53 19° W visible
31 Oct 9.7 18:46:31 10° SW 19:04:04 47° SSE 19:09:22 35° ESE visible
31 Oct 9.8 21:02:49 10° WSW 21:14:07 47° WSW 21:14:07 47° WSW visible
01 Nov 10.4 17:33:13 10° SSW 17:49:50 35° SE 18:01:35 13° E visible
01 Nov 9.2 19:47:23 10° SW 20:05:32 67° SSE 20:06:20 66° SE visible
01 Nov 10.6 22:05:35 10° W 22:11:04 25° W 22:11:04 25° W visible
02 Nov 9.7 18:32:43 10° SW 18:51:22 54° SSE 18:58:30 33° E visible
02 Nov 9.6 20:49:36 10° WSW 21:03:15 59° WSW 21:03:15 59° WSW visible
03 Nov 10.4 17:19:10 10° SSW 17:36:57 41° SE 17:50:38 11° E visible
03 Nov 9.2 19:33:57 10° WSW 19:52:57 74° SSE 19:55:22 65° ESE visible
03 Nov 10.4 21:52:34 10° W 22:00:07 31° W 22:00:07 31° W visible
04 Nov 9.8 18:19:08 10° SW 18:38:33 61° SSE 18:47:28 30° E visible
04 Nov 9.4 20:36:26 10° WSW 20:52:12 70° WSW 20:52:12 70° WSW visible
04 Nov 11.1 22:55:34 10° W 22:56:57 13° W 22:56:57 13° W visible
05 Nov 10.4 17:05:25 10° SSW 17:23:57 48° SSE 17:39:07 10° E visible
05 Nov 9.3 19:20:40 10° WSW 19:40:18 80° SSE 19:44:16 59° E visible
05 Nov 10.2 21:39:31 10° W 21:49:00 38° W 21:49:00 38° W visible
06 Nov 9.9 18:05:44 10° SW 18:25:38 68° SSE 18:36:17 26° E visible
06 Nov 9.3 20:23:18 10° W 20:41:01 81° W 20:41:01 81° W visible
06 Nov 10.9 22:42:34 10° W 22:45:45 18° W 22:45:45 18° W visible
07 Nov 10.4 16:51:56 10° SW 17:10:50 54° SSE 17:27:04 10° ENE visible
07 Nov 9.4 19:07:29 10° WSW 19:27:35 85° SSE 19:33:00 52° E visible
07 Nov 10.0 21:26:27 10° W 21:37:44 45° W 21:37:44 45° W visible
08 Nov 10.0 17:52:32 10° WSW 18:12:39 73° SSE 18:24:58 22° E visible
08 Nov 9.3 20:10:14 10° W 20:29:36 86° N 20:29:42 86° N visible
08 Nov 10.8 22:29:30 10° WNW 22:34:25 23° W 22:34:25 23° W visible
